Regional Weather Roundup
Issued by NWS

Home | Current Version | Previous Version | Graphics & Text | Print | Product List | Glossary On
Versions: 1 2 3 4 5 6 7 8 9 10 11 12 13 14 15 16 17 18 19 20 21 22 23 24 25 26 27 28 29 30 31 32 33 34 35 36 37 38 39 40 41 42 43 44 45 46 47 48 49 50
000
ASUS44 KMEG 240500
RWRTN
TENNESSEE HOURLY STATE WEATHER ROUNDUP
NATIONAL WEATHER SERVICE MEMPHIS TN
1200 AM CDT SAT SEP 24 2016

TNZ002-004-019-021-049-052-054-088>092-240600-
WEST TENNESSEE

CITY           SKY/WX    TMP DP  RH WIND       PRES   REMARKS
MEMPHIS INTL   CLEAR     79  67  66 CALM      30.03S
NWS MEMPHIS      N/A     72 N/A N/A MISG        N/A
JACKSON          N/A    N/A N/A N/A MISG      30.05S
DYERSBURG      CLEAR    N/A N/A N/A MISG      30.04S
PARIS          CLEAR     70  66  88 CALM      30.07R
$$

TNZ008-025-027-028-033-062-065-066-240600-
NORTH MIDDLE TENNESSEE

CITY           SKY/WX    TMP DP  RH WIND       PRES   REMARKS
NASHVILLE      CLEAR     72  66  81 CALM      30.08S
CLARKSVILLE    CLEAR     70  66  87 CALM      30.07S
SMYRNA         CLEAR     69  67  93 CALM      30.08S
COOKEVILLE     CLEAR     63  63 100 CALM      30.09F
CROSSVILLE     CLEAR     65  62  90 CALM      30.15S
$$

TNZ061-075-076-078-094-096-097-240600-
SOUTH MIDDLE TENNESSEE

CITY           SKY/WX    TMP DP  RH WIND       PRES   REMARKS
SHELBYVILLE    CLEAR     66  64  94 CALM      30.09S
$$

TNZ017-018-042-046-047-240600-
NORTHEAST TENNESSEE

CITY           SKY/WX    TMP DP  RH WIND       PRES   REMARKS
TRI CITIES     CLEAR     64  61  90 CALM      30.13R
$$

TNZ012-013-036-069-073-074-240600-
CENTRAL EAST TENNESSEE

CITY           SKY/WX    TMP DP  RH WIND       PRES   REMARKS
KNOXVILLE      CLEAR     71  63  75 CALM      30.08S
OAK RIDGE      CLEAR     69  65  86 CALM      30.10S
GATLINBURG     CLEAR     64  61  88 CALM      30.09S
$$

TNZ083-085-099-240600-
SOUTHEAST TENNESSEE

CITY           SKY/WX    TMP DP  RH WIND       PRES   REMARKS
CHATTANOOGA    CLEAR     73  64  73 CALM      30.07S
$$

SKY/WX REPORTED AS FAIR MEANS FEW OR NO CLOUDS BELOW
12 THOUSAND FEET.





USA.gov is the U.S. government's official web portal to all federal, state and local government web resources and services.